BREEZE-M DEB, 38621

Orbit data source: Space-Track

BREEZE-M DEB, 38621 is space debris in HEO originally from a launch on Fri, 14 Mar 2008 UTC launched from the Tyuratam Missile And Space Complex (TTMTR). Debris objects in space refer to the collection of defunct objects orbiting the Earth. Examples of debris include non-operational satellites, rocket bodies, and fragments generated from explosions, collisions, or faulty payload assembly.

Loading next visibility...
Identifier
38621, 2008-011BU
Orbit
HEO
Country
Flag of CISCIS
Related business
Manufacturer
Unknown
Mission
Spacecraft
Bus & Motor
Unknown
Mass
Unknown
Launch date (UTC)
2008-03-14 (18 years ago)
Launch vehicle
Unknown
Launch site
Tyuratam Missile And Space Complex (TTMTR)
Object type
Payload
Rocket body
Debris
Shape & HBR
Unknown shape, 0.2 m
Radar Cross Section
Medium (>0.1 m² and <1 m²)

Expand to show TLE details & history
Last TLE update: 2 months ago

TLE from 2 months ago
0 BREEZE-M DEB
1 38621U 08011BU  26121.30876093  .00001316  00000-0  56829-1 0  9990
2 38621  49.0593  52.8986 6406813 194.1704 132.1601  3.02479440 22140
Epoch: 2026-05-01T07:24Z
TLE epoch observation values (Epoch: 2026-05-01T07:24:36.944Z)
Latitude
0.00003°
Longitude
82.50028°
Altitude
25,080.467 km
Speed
2.368 km/s
True Right ascension
03h 31m 35s
True Declination
0° 00' 00"
Sunlit
Object was in daylight at epoch
Visualization orbit readout
Latitude
Unknown
Longitude
Unknown
Altitude
Unknown
Speed
Unknown
Apparent Right ascension
Unknown
Apparent Declination
Unknown
Sunlit
N/A
Visualization observer readout
Local Sidereal Time
12:28:25
Azimuth
Unknown
Elevation
Unknown
Doppler factor
Unknown
Orbital elements
Apogee altitude
26,758.672 km
Perigee altitude
879.016 km
Semi-major axis
20,196.981 km
Eccentricity
0.64068
Inclination
49.0593°
RAAN
52.8986°
Arg. of periapsis
194.1704°
True anomaly
165.86854°
Mean anomaly
132.1601°
Eccentric anomaly
150.33056°
Mean motion
0.75616 °/min
Orbital period
476.09 mins
BSTAR
0.056829
Loading maneuver chart data...
Computing Atmospheric mass density...
Loading historical data...
Loading historical data...
Loading historical data...
Loading historical data...
Loading historical data...
Loading historical data...
Loading historical data...

Documentation

Showing up to 5 results
|